This is the latest recevied weather packets stored in our database for station/object K0WOI. If no packets are shown the sender has not sent any weather packets the latest 10 day(s).
| Time | Temp. | Humidity | Pressure | Rain* | Wind** | Luminosity | Snow |
|---|---|---|---|---|---|---|---|
| 1777818091 | 16.11° C | 47% | 1008.9 hPa | 0 mm | - | 131 W/m² | - |
| 1777817787 | 16.11° C | 45% | 1008.9 hPa | 0 mm | - | 119 W/m² | - |
| 1777817485 | 16.11° C | 46% | 1008.7 hPa | 0 mm | - | 101 W/m² | - |
| 1777817181 | 15.56° C | 47% | 1008.8 hPa | 0 mm | - | 154 W/m² | - |
| 1777816879 | 15.56° C | 48% | 1009.1 hPa | 0 mm | - | 73 W/m² | - |
| 1777816576 | 15° C | 49% | 1008.9 hPa | 0 mm | - | 59 W/m² | - |
| 1777816272 | 15° C | 48% | 1009.2 hPa | 0 mm | - | 58 W/m² | - |
| 1777815970 | 15° C | 48% | 1009.2 hPa | 0 mm | - | 83 W/m² | - |
| 1777815667 | 14.44° C | 49% | 1008.9 hPa | 0 mm | - | 59 W/m² | - |
| 1777815364 | 13.89° C | 50% | 1009 hPa | 0 mm | - | 50 W/m² | - |
| 1777815061 | 13.89° C | 51% | 1009.1 hPa | 0 mm | - | 50 W/m² | - |
| 1777814757 | 13.33° C | 53% | 1009 hPa | 0 mm | - | 47 W/m² | - |
| 1777814454 | 13.33° C | 53% | 1008.8 hPa | 0 mm | - | 48 W/m² | - |
| 1777814151 | 12.78° C | 53% | 1008.6 hPa | 0 mm | - | 45 W/m² | - |
| 1777813848 | 12.78° C | 53% | 1008.7 hPa | 0 mm | - | 43 W/m² | - |
| 1777813545 | 12.78° C | 54% | 1008.7 hPa | 0 mm | - | 43 W/m² | - |
| 1777813244 | 12.22° C | 54% | 1008.8 hPa | 0 mm | - | 40 W/m² | - |
| 1777812941 | 12.22° C | 55% | 1008.8 hPa | 0 mm | - | 39 W/m² | - |
| 1777812638 | 12.22° C | 54% | 1008.6 hPa | 0 mm | - | 37 W/m² | - |
| 1777812334 | 11.67° C | 55% | 1008.6 hPa | 0 mm | - | 34 W/m² | - |
| 1777812033 | 11.67° C | 55% | 1008.9 hPa | 0 mm | - | 32 W/m² | - |
| 1777811731 | 11.67° C | 54% | 1008.9 hPa | 0 mm | - | 28 W/m² | - |
| 1777811427 | 11.67° C | 54% | 1008.8 hPa | 0 mm | - | 25 W/m² | - |
| 1777811124 | 11.67° C | 54% | 1008.9 hPa | 0 mm | - | 26 W/m² | - |
| 1777810821 | 11.67° C | 54% | 1009 hPa | 0 mm | - | 26 W/m² | - |
* Rain latest hour (hover to see other rain measurements)
** Current wind speed in m/s (hover to see current wind gust speed)